Weather Service Report


425 
ASUS46 KSTO 082115
RWRCA 

NORTHERN AND CENTRAL CA REGIONAL WEATHER ROUNDUP
NATIONAL WEATHER SERVICE SACRAMENTO CA 
100 PM PST THU DEC 08 2016

NOTE: FAIR INDICATES FEW OR NO CLOUDS BELOW 12,000 FEET WITH NO
SIGNIFICANT WEATHER AND/OR OBSTRUCTIONS TO VISIBILITY.

CAZ001-003-082200-
NORTHWEST AREA
  
CITY           SKY/WX    TMP DP  RH WIND       PRES   REMARKS
CRESCENT CITY  LGT RAIN  53  52  96 S20G29    29.91R FOG              
UKIAH          LGT RAIN  46  45  96 CALM      30.10S FOG              
$$

CAZ006-505>513-082200-
BAY AREA
  
CITY           SKY/WX    TMP DP  RH WIND       PRES   REMARKS
SANTA ROSA     LGT RAIN  49  49 100 NW6       30.10S FOG              
SAN RAFAEL     N/A       50  MM  MM MISG
NAPA           CLOUDY    53  49  86 E12       30.12S FOG              
CONCORD        LGT RAIN  51  48  89 N6        30.12F FOG              
OAKLAND CITY   N/A      MM  MM  MM MISG
OAKLAND        CLOUDY    59  55  87 SE12      30.11F                  
SAN FRAN CITY  N/A       55  MM 100 MISG
SAN FRAN ARPT  LGT RAIN  55  53  93 NE3       30.11S FOG              
LIVERMORE      CLOUDY    59  54  83 E5        30.11S                  
HAYWARD        LGT RAIN  62  52  69 S12       30.10F                  
REDWOOD CITY   N/A       61  MM  90 MISG
MOFFETT ARPT   CLOUDY    63  53  70 S12       30.12S                  
SAN JOSE ARPT  CLOUDY    61  53  75 E12       30.13S                  
$$
CAZ034-037-514>518-082200-
CENTRAL COAST
  
CITY           SKY/WX    TMP DP  RH WIND       PRES   REMARKS
WATSONVILLE    LGT RAIN  55  55 100 CALM      30.15S FOG              
SALINAS        CLOUDY    60  53  77 SE22      30.13S HAZE             
MONTEREY       LGT RAIN  63  59  87 S7        30.14R FOG              
SAN LUIS OBISP LGT RAIN  59  56  89 SE10      30.21F FOG              
SANTA MARIA    LGT RAIN  59  58  96 S6        30.22F FOG              
$$
CAZ015-016-082200-
NORTHERN SACRAMENTO VALLEY
  
CITY           SKY/WX    TMP DP  RH WIND       PRES   REMARKS
REDDING        CLOUDY    42  41  96 CALM      30.14F FOG              
RED BLUFF      CLOUDY    41  39  93 NW8       30.16F FOG              
OROVILLE       LGT RAIN  45  43  93 NW5       30.18S FOG              
$$
CAZ016>018-082200-
SOUTHERN SACRAMENTO VALLEY
  
CITY           SKY/WX    TMP DP  RH WIND       PRES   REMARKS
AUBURN         CLOUDY    52  52 100 S7        30.14S                  
BEALE AFB      DRZL/FOG  46  46 100 NW3       30.15R VSB 1            
LINCOLN        CLOUDY    41  41 100 W6        30.15S                  
MARYSVILLE     LGT RAIN  45  44  97 NW3       30.17S FOG              
PLACERVILLE    MOCLDY    50  50 100 S8        30.15R                  
SAC INTL ARPT  LGT RAIN  43  43 100 NW6       30.15F FOG              
MATHER AIRPORT CLOUDY    54  52  94 S20G26    30.14S                  
DOWNTOWN SAC   N/A       52  MM  MM MISG
SAC EXEC ARPT  LGT RAIN  51  51 100 S7        30.15S FOG              
VACAVILLE      LGT RAIN  45  45 100 N6        30.16F FOG              
TRAVIS AFB     LGT RAIN  48  47  96 N9        30.12F FOG              
$$
CAZ019>021-082200-
SAN JOAQUIN VALLEY
  
CITY           SKY/WX    TMP DP  RH WIND       PRES   REMARKS
STOCKTON       LGT RAIN  56  50  80 SE21G30   30.15S                  
MODESTO        CLOUDY    57  47  69 SE15G22   30.18F                  
MERCED         CLOUDY    55  51  86 SE18      30.19F                  
LEMOORE        CLOUDY    57  48  72 SE12      30.21F                  
FRESNO         LGT RAIN  53  52  96 SE7       30.23F VSB 1            
HANFORD        CLOUDY    57  52  83 E6        30.22F HAZE             
PORTERVILLE    LGT RAIN  57  56  96 E6        30.22F FOG              
BAKERSFIELD    CLOUDY    65  45  48 CALM      30.19F                  
$$
CAZ011-012-071-082200-
NORTHERN MOUNTAINS
  
CITY           SKY/WX    TMP DP  RH WIND       PRES   REMARKS
YREKA          CLOUDY    37  32  82 NE10      29.95S WCI  30          
MOUNT SHASTA   CLOUDY    36  32  85 VRB6      30.04S WCI  31          
ALTURAS        CLOUDY    34  30  85 W6        29.98F WCI  29          
$$
CAZ011-012-071-082200-
SIERRA NEVADA MTNS
  
CITY           SKY/WX    TMP DP  RH WIND       PRES   REMARKS
BLUE CANYON    LGT RAIN  42  41  96 S15G22    30.14S VSB<1/4          
TRUCKEE        CLOUDY    45  37  76 SW3       30.09F                  
TAHOE VLY ARPT LGT RAIN  45  37  73 S15G32    30.08F                  
MAMMOTH LAKES  CLOUDY    49  32  51 W28G37    30.16R                  
$$
  

Return to Home page


Western Regional Climate Center, wrcc@dri.edu